EW6103 Weather Reports


time (UTC)temp
C
wind
direction
speed
KPH
gust
KPH
rain 1hr
cm
rain 24hr
cm
rain mn
cm
humidity
%
barometer
mb
20260509173010 14 45 3.2 6.4 0.00 0.00 0.00 58 1018.1
20260509172008 14 90 3.2 4.8 0.00 0.00 0.00 58 1018.1
20260509171008 14 315 3.2 6.4 0.00 0.00 0.00 56 1018.0
20260509170010 15 45 1.6 6.4 0.00 0.00 0.00 56 1018.0
20260509165008 15 0 3.2 4.8 0.00 0.00 0.00 54 1018.0
20260509164008 15 0 1.6 4.8 0.00 0.00 0.00 53 1017.9
20260509163014 15 45 1.6 6.4 0.00 0.00 0.00 55 1018.0
20260509162009 15 90 3.2 6.4 0.00 0.00 0.00 54 1018.0
20260509161008 15 45 3.2 6.4 0.00 0.00 0.00 54 1018.0
20260509160012 15 45 4.8 8.0 0.00 0.00 0.00 54 1018.0
20260509154009 15 90 4.8 8.0 0.00 0.00 0.00 55 1018.0
20260509153009 15 0 4.8 8.0 0.00 0.00 0.00 54 1018.0
20260509152009 15 45 3.2 6.4 0.00 0.00 0.00 54 1018.0
20260509151009 16 45 4.8 9.7 0.00 0.00 0.00 55 1017.9
20260509145007 15 45 4.8 8.0 0.00 0.00 0.00 55 1018.1
20260509144009 16 0 4.8 8.0 0.00 0.00 0.00 55 1017.9
20260509143009 16 45 4.8 8.0 0.00 0.00 0.00 54 1018.0
20260509142011 16 45 4.8 9.7 0.00 0.00 0.00 54 1018.0
20260509141007 16 0 4.8 8.0 0.00 0.00 0.00 54 1018.0
20260509135008 17 45 6.4 11.3 0.00 0.00 0.00 53 1018.1
20260509134009 17 45 6.4 11.3 0.00 0.00 0.00 52 1018.1
20260509132009 15 45 3.2 6.4 0.00 0.00 0.00 56 1018.7
20260509131006 15 180 3.2 6.4 0.00 0.00 0.00 57 1018.8
20260509130013 14 0 4.8 8.0 0.00 0.00 0.00 58 1018.8
20260509125007 15 0 4.8 6.4 0.00 0.00 0.00 58 1018.7
20260509124007 15 0 4.8 12.9 0.00 0.00 0.00 57 1018.9
20260509123010 15 45 4.8 6.4 0.00 0.00 0.00 58 1018.9
20260509122008 15 180 3.2 6.4 0.00 0.00 0.00 58 1018.9
20260509121009 15 0 4.8 8.0 0.00 0.00 0.00 59 1018.9
20260509120012 15 45 4.8 9.7 0.00 0.00 0.00 59 1018.8
20260509115008 15 270 3.2 6.4 0.00 0.00 0.00 59 1018.9
20260509114009 15 90 3.2 8.0 0.00 0.00 0.00 56 1018.9
20260509113010 15 180 3.2 6.4 0.00 0.00 0.00 60 1018.9
20260509110013 15 90 3.2 6.4 0.00 0.00 0.00 57 1018.9
20260509105009 16 45 1.6 6.4 0.00 0.00 0.00 56 1019.0
20260509104009 15 180 6.4 11.3 0.00 0.00 0.00 57 1018.9
20260509103010 15 0 4.8 8.0 0.00 0.00 0.00 59 1019.1
20260509102008 14 225 1.6 3.2 0.00 0.00 0.00 69 1019.1
20260509100014 14 225 1.6 3.2 0.00 0.00 0.00 69 1019.1
20260509095008 14 225 1.6 3.2 0.00 0.00 0.00 69 1019.1
20260509094010 14 225 1.6 3.2 0.00 0.00 0.00 69 1019.1
20260509092008 14 225 1.6 3.2 0.00 0.00 0.00 69 1019.1
20260509090009 14 225 1.6 3.2 0.00 0.00 0.00 69 1019.1
20260509085008 14 225 1.6 3.2 0.00 0.00 0.00 69 1019.1
20260509084008 14 225 1.6 3.2 0.00 0.00 0.00 69 1019.1
20260509083010 14 225 1.6 3.2 0.00 0.00 0.00 69 1019.1
20260509082009 14 225 1.6 3.2 0.00 0.00 0.00 69 1019.1
20260509081010 14 225 1.6 3.2 0.00 0.00 0.00 69 1019.1
20260509080012 14 45 3.2 8.0 0.00 0.00 0.00 68 1019.3
20260509075008 13 270 1.6 4.8 0.00 0.00 0.00 70 1019.4
20260509074008 13 180 1.6 4.8 0.00 0.00 0.00 70 1019.4
20260509071009 12 180 1.6 4.8 0.00 0.00 0.00 76 1019.4
20260509070013 11 0 3.2 6.4 0.00 0.00 0.00 77 1019.7
20260509065009 11 90 1.6 3.2 0.00 0.00 0.00 78 1019.6
20260509063009 11 0 1.6 4.8 0.00 0.00 0.00 80 1019.7
20260509062008 11 0 3.2 6.4 0.00 0.00 0.00 79 1019.5
20260509061012 11 180 1.6 3.2 0.00 0.00 0.00 79 1019.4
20260509054007 10 0 3.2 6.4 0.00 0.00 0.00 83 1019.3
20260509052009 8 0 1.6 4.8 0.00 0.00 0.00 91 1019.4
20260509050011 6 180 0.0 3.2 0.00 0.00 0.00 96 1019.5
20260509045008 6 45 0.0 1.6 0.00 0.00 0.00 97 1019.5
20260509044009 5 45 0.0 1.6 0.00 0.00 0.00 97 1019.6
20260509043009 4 45 0.0 1.6 0.00 0.00 0.00 97 1019.6
20260509042006 4 90 1.6 3.2 0.00 0.00 0.00 97 1019.7
20260509041008 3 45 0.0 1.6 0.00 0.00 0.00 97 1019.6
20260509040011 3 45 0.0 0.0 0.00 0.00 0.00 97 1019.8
20260509035006 3 45 0.0 0.0 0.00 0.00 0.00 96 1019.8
20260509034008 3 45 1.6 3.2 0.00 0.00 0.00 96 1019.7
20260509033010 3 90 1.6 3.2 0.00 0.00 0.00 96 1019.8
20260509032007 3 0 0.0 1.6 0.00 0.00 0.00 96 1019.8
20260509031007 3 180 1.6 3.2 0.00 0.00 0.00 96 1019.7
20260509025007 3 45 0.0 1.6 0.00 0.00 0.00 95 1019.6
20260509024008 3 45 0.0 1.6 0.00 0.00 0.00 95 1019.6
20260509023010 3 45 0.0 0.0 0.00 0.00 0.00 95 1019.6
20260509022008 4 45 0.0 1.6 0.00 0.00 0.00 95 1019.6
20260509021008 4 0 0.0 3.2 0.00 0.00 0.00 95 1019.6
20260509020011 5 0 0.0 1.6 0.00 0.00 0.00 95 1019.5
20260509014008 5 180 1.6 4.8 0.00 0.00 0.00 95 1019.4
20260509013010 5 270 1.6 4.8 0.00 0.00 0.00 94 1019.4
20260509012009 6 90 0.0 3.2 0.00 0.00 0.00 94 1019.1
20260509011007 6 0 0.0 3.2 0.00 0.00 0.00 94 1019.2
20260509010011 7 0 1.6 3.2 0.00 0.00 0.00 94 1019.1
20260509005009 7 90 0.0 1.6 0.00 0.00 0.00 94 1019.4
20260509004008 7 90 1.6 3.2 0.00 0.00 0.00 94 1019.4
20260509003009 6 135 0.0 1.6 0.00 0.00 0.00 94 1019.5
20260509002006 6 90 0.0 0.0 0.00 0.00 0.00 94 1019.6
20260509001008 6 90 0.0 0.0 0.00 0.00 0.00 94 1019.6
20260508234009 6 225 0.0 3.2 0.00 0.00 0.00 94 1019.8
20260508233009 6 45 0.0 1.6 0.00 0.00 0.00 93 1019.6
20260508232009 7 180 1.6 3.2 0.00 0.00 0.00 92 1019.7
20260508231008 7 45 0.0 3.2 0.00 0.00 0.00 92 1019.7
20260508230014 7 225 0.0 3.2 0.00 0.00 0.00 92 1019.7
20260508225009 7 135 0.0 1.6 0.00 0.00 0.00 91 1019.6
20260508224009 8 0 0.0 3.2 0.00 0.00 0.00 91 1019.5
20260508223010 8 45 1.6 4.8 0.00 0.00 0.00 91 1019.5
20260508222008 7 45 1.6 3.2 0.00 0.00 0.00 93 1019.5
20260508221006 7 45 0.0 3.2 0.00 0.00 0.00 94 1019.4
20260508220012 7 45 0.0 1.6 0.00 0.00 0.00 94 1019.6
20260508215007 6 45 0.0 1.6 0.00 0.00 0.00 94 1019.5
20260508214013 6 45 0.0 3.2 0.00 0.00 0.00 94 1019.6
20260508212006 6 180 0.0 1.6 0.00 0.00 0.00 93 1019.5
20260508211006 6 180 0.0 3.2 0.00 0.00 0.00 93 1019.6
20260508205009 6 45 0.0 1.6 0.00 0.00 0.00 92 1019.4
20260508204005 6 180 0.0 1.6 0.00 0.00 0.00 92 1019.3
20260508201011 7 45 0.0 1.6 0.00 0.00 0.00 89 1018.9
20260508200009 7 180 0.0 3.2 0.00 0.00 0.00 89 1018.9
20260508195006 8 180 0.0 1.6 0.00 0.00 0.00 88 1019.0
20260508194009 8 180 0.0 1.6 0.00 0.00 0.00 87 1018.7
20260508193007 8 45 0.0 1.6 0.00 0.00 0.00 85 1018.5
20260508192005 10 45 0.0 1.6 0.00 0.00 0.00 83 1018.4
20260508191008 10 0 1.6 6.4 0.00 0.00 0.00 81 1018.2
20260508190011 10 45 3.2 6.4 0.00 0.00 0.00 80 1017.9
20260508185008 11 45 4.8 9.7 0.00 0.00 0.00 78 1017.8
20260508184007 11 180 4.8 8.0 0.00 0.00 0.00 78 1017.7
20260508181006 12 45 3.2 6.4 0.00 0.00 0.00 75 1017.3
20260508180013 12 90 3.2 6.4 0.00 0.00 0.00 73 1017.1